Location: Newark
(22.3060°N, 114.2134°E)
Time: 22:08:31
(UTC+00:00)

Altair - All Passes

Search period start: 28 July 2021 00:00
Search period end: 07 August 2021 00:00
Orbit: 1501 x 1682 km, 47.2° (Epoch: 28 July)

Date Brightness Start Highest point End Pass type
(mag) Time Alt. Az. Time Alt. Az. Time Alt. Az.
28 Jul - 02:02:51 10° NW 02:12:02 69° NE 02:21:29 10° SE daylight
28 Jul - 04:08:41 10° WNW 04:16:17 29° SW 04:24:06 10° S daylight
28 Jul - 15:08:58 10° SSE 15:14:40 17° SE 15:20:14 10° E night (unlit)
28 Jul - 17:09:03 10° SW 17:18:44 83° SE 17:28:03 10° NE visible
28 Jul - 19:16:15 10° W 19:24:07 29° NNW 19:31:50 10° NNE visible
28 Jul - 21:27:58 10° NNW 21:32:02 13° N 21:36:05 10° NNE visible
28 Jul - 23:34:16 10° NNW 23:40:37 20° NNE 23:47:00 10° ENE daylight
29 Jul - 01:37:44 10° NW 01:46:51 63° NE 01:56:11 10° ESE daylight
29 Jul - 03:43:15 10° WNW 03:51:09 32° SW 03:59:19 10° S daylight
29 Jul - 14:44:44 10° SSE 14:49:32 15° SE 14:54:14 10° E night (unlit)
29 Jul - 16:43:54 10° SW 16:53:34 76° SE 17:02:53 10° NE visible
29 Jul - 18:50:40 10° W 18:58:48 31° NNW 19:06:46 10° NNE visible
29 Jul - 21:02:18 10° NW 21:06:33 14° N 21:10:47 10° NNE visible
29 Jul - 23:09:10 10° NNW 23:15:14 19° NNE 23:21:17 10° ENE daylight
30 Jul - 01:12:38 10° NW 01:21:39 57° NE 01:30:51 10° ESE daylight
30 Jul - 03:17:51 10° WNW 03:26:02 36° SW 03:34:28 10° S daylight
30 Jul - 14:20:49 10° SSE 14:24:24 12° SE 14:27:55 10° ESE night (unlit)
30 Jul - 16:18:47 10° SSW 16:28:24 69° SE 16:37:41 10° NE visible
30 Jul - 18:25:07 10° W 18:33:30 34° NW 18:41:43 10° NNE visible
30 Jul - 20:36:36 10° NW 20:41:05 14° N 20:45:33 10° NNE visible
30 Jul - 22:44:05 10° NNW 22:49:49 18° NNE 22:55:34 10° ENE daylight
31 Jul - 00:47:33 10° NW 00:56:26 52° NE 01:05:30 10° ESE daylight
31 Jul - 02:52:29 10° WNW 03:00:54 40° SW 03:09:35 10° SSE daylight
31 Jul - 13:58:00 10° SE 13:59:15 10° SE 14:00:31 10° ESE night (unlit)
31 Jul - 15:53:41 10° SSW 16:03:15 63° SE 16:12:28 10° NE visible
31 Jul - 17:59:36 10° W 18:08:13 37° NW 18:16:39 10° NNE visible
31 Jul - 20:10:52 10° NW 20:15:37 15° NNW 20:20:20 10° NNE visible
31 Jul - 22:18:57 10° NNW 22:24:24 17° NNE 22:29:51 10° NE daylight
01 Aug - 00:22:27 10° NW 00:31:13 47° NE 00:40:07 10° ESE daylight
01 Aug - 02:27:10 10° WNW 02:35:47 45° SW 02:44:39 10° SSE daylight
01 Aug - 15:28:37 10° SSW 15:38:06 56° SE 15:47:14 10° NE visible
01 Aug - 17:34:06 10° WSW 17:42:58 41° NW 17:51:35 10° NNE visible
01 Aug - 19:45:07 10° NW 19:50:10 15° NNW 19:55:10 10° NNE visible
01 Aug - 21:53:49 10° NNW 21:58:58 16° NNE 22:04:08 10° NE daylight
01 Aug - 23:57:22 10° NNW 00:05:59 43° NE 00:14:42 10° ESE daylight
02 Aug - 02:01:53 10° WNW 02:10:40 50° SW 02:19:41 10° SSE daylight
02 Aug - 15:03:36 10° SSW 15:12:58 51° SE 15:21:58 10° ENE visible
02 Aug - 17:08:38 10° WSW 17:17:42 44° NW 17:26:30 10° NNE visible
02 Aug - 19:19:21 10° NW 19:24:43 16° NNW 19:30:01 10° NNE visible
02 Aug - 21:28:38 10° NNW 21:33:32 15° NNE 21:38:25 10° NE visible
02 Aug - 23:32:17 10° NNW 23:40:45 40° NE 23:49:16 10° ESE daylight
03 Aug - 01:36:38 10° NW 01:45:32 56° SW 01:54:40 10° SSE daylight
03 Aug - 14:38:36 10° SSW 14:47:49 46° SE 14:56:41 10° ENE visible
03 Aug - 16:43:12 10° WSW 16:52:27 49° NW 17:01:25 10° NE visible
03 Aug - 18:53:35 10° NW 18:59:17 17° NNW 19:04:54 10° NNE visible
03 Aug - 21:03:26 10° NNW 21:08:05 14° N 21:12:41 10° NE visible
03 Aug - 23:07:13 10° NNW 23:15:29 36° NE 23:23:48 10° E daylight
04 Aug - 01:11:23 10° NW 01:20:24 63° SW 01:29:38 10° SSE daylight
04 Aug - 14:13:39 10° SSW 14:22:40 41° SE 14:31:22 10° ENE visible
04 Aug - 16:17:47 10° WSW 16:27:13 53° NW 16:36:20 10° NE visible
04 Aug - 18:27:49 10° WNW 18:33:51 18° NNW 18:39:48 10° NNE visible
04 Aug - 20:38:11 10° NNW 20:42:36 14° N 20:47:01 10° NE visible
04 Aug - 22:42:08 10° NNW 22:50:12 33° NNE 22:58:18 10° E daylight
05 Aug - 00:46:11 10° NW 00:55:16 69° SW 01:04:34 10° SSE daylight
05 Aug - 02:56:08 10° WSW 02:59:11 12° SW 03:02:16 10° SW daylight
05 Aug - 13:48:45 10° S 13:57:32 37° SE 14:06:00 10° ENE visible
05 Aug - 15:52:25 10° WSW 16:02:00 58° NW 16:11:14 10° NE visible
05 Aug - 18:02:04 10° WNW 18:08:27 19° NNW 18:14:43 10° NNE visible
05 Aug - 20:12:53 10° NNW 20:17:08 14° N 20:21:22 10° NE visible
05 Aug - 22:17:04 10° NNW 22:24:55 31° NNE 22:32:47 10° E daylight
06 Aug - 00:21:00 10° NW 00:30:08 76° SW 00:39:27 10° SE daylight
06 Aug - 02:29:43 10° W 02:34:03 14° SW 02:38:29 10° SSW daylight
06 Aug - 13:23:53 10° S 13:32:23 33° SE 13:40:35 10° ENE visible
06 Aug - 15:27:04 10° WSW 15:36:46 64° NW 15:46:09 10° NE visible
06 Aug - 17:36:20 10° WNW 17:43:03 21° NNW 17:49:38 10° NNE visible
06 Aug - 19:47:31 10° NNW 19:51:39 13° N 19:55:45 10° NNE visible
06 Aug - 21:51:59 10° NNW 21:59:37 28° NNE 22:07:14 10° E daylight
